Location: Newark
(15.4608°S, 41.1635°W)
Time: 18:28:43
(UTC+00:00)

A-11 Canister half - Visible Passes

Search period start: 28 February 2021 00:00
Search period end: 10 March 2021 00:00
Orbit: 1516 x 1684 km, 47.2° (Epoch: 27 February)

Date Brightness Start Highest point End Pass type
(mag) Time Alt. Az. Time Alt. Az. Time Alt. Az.
28 Feb 10.3 00:47:20 10° WNW 00:51:58 28° W 00:51:58 28° W visible
28 Feb 11.1 07:15:27 10° SSW 07:22:38 22° SE 07:29:57 10° E visible
28 Feb 9.1 22:19:14 10° NNW 22:27:59 46° NE 22:34:01 21° ESE visible
01 Mar 9.8 00:24:13 10° WNW 00:32:23 41° SW 00:32:23 41° SW visible
01 Mar 11.1 06:52:43 10° SSW 06:59:35 21° SE 07:06:32 10° E visible
01 Mar 9.2 21:56:31 10° NNW 22:05:07 42° NE 22:13:39 10° ESE visible
02 Mar 9.7 00:01:08 10° WNW 00:09:49 44° SW 00:12:58 34° S visible
02 Mar11.402:23:30SSE02:23:30SSE02:11:21WSWvisible
02 Mar 11.1 06:30:02 10° S 06:36:30 19° SSE 06:43:04 10° ESE visible
02 Mar 9.4 21:33:48 10° NNW 21:42:15 39° NE 21:50:36 10° ESE visible
02 Mar 9.6 23:38:03 10° WNW 23:46:52 48° SW 23:53:35 18° SSE visible
03 Mar 11.2 01:50:34 10° SW 02:01:46 - SSE 01:51:58 11° SW visible
03 Mar 11.1 06:07:21 10° S 06:13:26 18° SSE 06:19:35 10° ESE visible
03 Mar 9.5 08:09:53 10° SW 08:19:40 69° SE 08:29:41 10° NE visible
03 Mar 9.5 21:11:08 10° N 21:19:22 35° NE 21:27:30 10° ESE visible
03 Mar 9.5 23:15:00 10° WNW 23:23:56 52° SW 23:32:56 10° SSE visible
04 Mar 11.1 01:26:51 10° SW 01:30:39 13° SSW 01:32:30 12° SSW visible
04 Mar 11.1 05:44:42 10° S 05:50:20 16° SSE 05:56:02 10° ESE visible
04 Mar 9.6 07:47:01 10° SW 07:56:43 64° SE 08:06:39 10° NE visible
04 Mar 9.5 22:51:58 10° WNW 23:01:01 56° SW 23:10:05 10° SSE visible
05 Mar 11.1 01:03:12 10° WSW 01:07:32 14° SSW 01:11:55 10° S visible
05 Mar 11.2 05:22:05 10° S 05:27:14 15° SSE 05:32:27 10° ESE visible
05 Mar 9.6 07:24:10 10° SSW 07:33:46 59° SE 07:43:36 10° ENE visible
05 Mar 9.4 22:28:56 10° NW 22:38:06 61° SW 22:47:15 10° SSE visible
06 Mar 11.1 00:39:38 10° WSW 00:44:27 15° SSW 00:49:19 10° S visible
06 Mar 11.2 04:59:30 10° S 05:04:08 14° SSE 05:08:48 10° ESE visible
06 Mar 9.7 07:01:20 10° SSW 07:10:48 55° SE 07:20:32 10° ENE visible
06 Mar 9.3 22:05:57 10° NW 22:15:11 66° SW 22:24:23 10° SE visible
07 Mar 11.0 00:16:07 10° WSW 00:21:22 16° SSW 00:26:41 10° S visible
07 Mar 11.2 04:36:59 10° S 04:41:00 13° SSE 04:45:04 10° SE visible
07 Mar 9.7 06:38:30 10° SSW 06:47:50 51° SE 06:57:26 10° ENE visible
07 Mar 9.3 21:42:57 10° NW 21:52:16 71° SW 22:01:32 10° SE visible
07 Mar 11.0 23:52:39 10° WSW 23:58:18 17° SSW 00:04:01 10° S visible
08 Mar 11.2 04:16:45 12° SSE 04:17:53 12° SSE 04:21:14 10° SE visible
08 Mar 9.8 06:15:40 10° SSW 06:24:53 47° SE 06:34:19 10° ENE visible
08 Mar 9.5 08:20:41 10° WSW 08:29:43 43° NW 08:39:00 10° NNE visible
08 Mar 9.2 21:20:00 10° NW 21:29:22 76° SW 21:38:40 10° SE visible
08 Mar 10.9 23:29:13 10° WSW 23:35:15 19° SSW 23:41:20 10° S visible
09 Mar 9.9 05:55:47 21° SSW 06:01:54 44° SE 06:11:11 10° ENE visible
09 Mar 9.3 07:57:38 10° WSW 08:06:48 47° NW 08:16:14 10° NNE visible
09 Mar 10.9 23:05:50 10° WSW 23:12:13 20° SSW 23:18:37 10° S visible
